Location: Le Pont-de-Coulogne
(50.9242°N, 1.8700°E)
Time: 12:03:45
(UTC+00:00)

Cosmos 2221 - Pass Details

Date: 15 May 2026
Orbit: 569 x 586 km, 82.5° (Epoch: 5 June)

Event Time Altitude Azimuth Distance (km) Brightness Sun altitude
Exits shadow 22:03:19 18° 103° (ESE) 1,449 4.1 -16.3°
Maximum altitude 22:04:14 19° 86° (E) 1,397 4.2 -16.4°
Drops below altitude 10° 22:07:13 10° 40° (NE) 1,905 5.4 -16.6°
Sets 22:09:54 0° 23° (NNE) 2,814 6.6 -16.7°
